Location: Saginaw
(43.4190°N, 83.9510°W)
Time: 15:27:46
(UTC-05:00)

Envisat - Visible Passes

Search period start: 16 November 2018 00:00
Search period end: 26 November 2018 00:00
Orbit: 764 x 766 km, 98.2° (Epoch: 16 November)

Date Brightness Start Highest point End Pass type
(mag) Time Alt. Az. Time Alt. Az. Time Alt. Az.
16 Nov 4.1 18:17:08 10° ESE 18:20:56 22° ENE 18:24:46 10° NNE visible
16 Nov 3.7 19:57:07 27° SSW 19:59:37 50° W 20:04:34 10° NNW visible
17 Nov 4.8 17:43:35 10° ENE 17:44:43 11° ENE 17:45:50 10° NE visible
17 Nov 2.8 19:20:08 28° SSE 19:22:50 76° ENE 19:27:56 10° N visible
17 Nov 5.8 21:00:21 11° WSW 21:02:26 13° W 21:04:50 10° WNW visible
18 Nov 3.5 18:43:08 18° ESE 18:46:16 36° ENE 18:50:52 10° N visible
18 Nov 4.7 20:23:22 22° SW 20:25:18 29° W 20:29:43 10° NW visible
19 Nov 6.4 06:52:06 10° ENE 06:53:07 11° E 06:54:08 10° E visible
19 Nov 4.3 18:06:33 10° ESE 18:09:53 18° ENE 18:13:13 10° NNE visible
19 Nov 3.3 19:46:21 35° S 19:48:24 63° W 19:53:28 10° NNW visible
20 Nov 2.9 19:09:20 31° SE 19:11:41 60° ENE 19:16:41 10° N visible
20 Nov 5.5 20:49:33 15° WSW 20:51:06 17° W 20:54:22 10° NW visible
21 Nov 3.8 18:32:18 17° ESE 18:35:09 29° ENE 18:39:29 10° N visible
21 Nov 4.4 20:12:31 30° SW 20:14:02 36° W 20:18:44 10° NNW visible
22 Nov 4.5 17:56:09 10° E 17:58:50 15° ENE 18:01:32 10° NNE visible
22 Nov 3.0 19:35:29 43° S 19:37:12 80° WSW 19:42:18 10° NNW visible
23 Nov 3.1 18:58:25 30° SE 19:00:32 48° ENE 19:05:25 10° N visible
23 Nov 5.2 20:38:38 20° WSW 20:39:48 21° W 20:43:38 10° NW visible
24 Nov 6.0 07:04:46 10° NE 07:07:41 15° E 07:10:34 10° SE visible
24 Nov 4.0 18:21:20 15° ESE 18:24:04 24° ENE 18:28:03 10° NNE visible
24 Nov 3.9 20:01:32 38° SW 20:02:48 45° W 20:07:41 10° NNW visible
25 Nov 4.7 17:46:04 10° ENE 17:47:48 12° ENE 17:49:33 10° NE visible
25 Nov 2.8 19:24:27 46° SSE 19:26:00 83° ENE 19:31:07 10° NNW visible
25 Nov 5.9 21:04:39 11° W 21:05:39 12° W 21:07:34 10° WNW visible
